Iridium
NORAD ID: 25432
Int'l Code: 1998-048B
Perigee: 783.3 km
Apogee: 786.3 km
Inclination: 86.4 °
Period: 100.4 minutes
Semi major axis: 7155 km
Launch date: August 19, 1998
Source: United States (US)
Comments: Spare; stored in 667 km storage orbit, not raised to 780 km operational orbit until needed
Two Line Element Set (TLE):
1 25432U 98048B 13145.46886295 .00000113 00000-0 33131-4 0 1966
2 25432 086.3970 155.6509 0002061 110.5265 052.3539 14.34214935772932
Source: AFSPC
NASA's NSSDC Master Catalog entry for IRIDIUM 76